Location: Beadle
(51.4667°N, 109.0000°W)
Time: 05:41:52
(UTC+00:00)

Altair - Pass Details

Date: 04 June 2022
Orbit: 1501 x 1682 km, 47.2° (Epoch: 30 June)

Event Time Altitude Azimuth Distance (km) Brightness Sun altitude
Rises 01:29:00 0° 276° (W) 4,869 11.9 15.1°
Reaches altitude 10° 01:32:09 10° 274° (W) 3,901 11.7 14.7°
Maximum altitude 01:41:59 63° 197° (SSW) 1,841 8.2 13.2°
Drops below altitude 10° 01:51:56 10° 120° (ESE) 3,940 9.1 11.8°
Sets 01:55:07 0° 117° (ESE) 4,920 9.5 11.3°
